Regional Weather Roundup
Issued by NWS

Home | Current Version | Previous Version | Text Only | Print | Product List | Glossary Off
Versions: 1 2 3 4 5 6 7 8 9 10 11 12 13 14 15 16 17 18 19 20 21 22 23 24 25 26 27 28 29 30 31 32 33 34 35 36 37 38 39 40 41 42 43 44 45 46 47 48 49 50

000
ASUS43 KDMX 292107
RWRIA

WEATHER ROUNDUP FOR IOWA
NATIONAL WEATHER SERVICE DES MOINES IA
400 PM CDT SAT AUG 29 2015

NOTE: "FAIR" INDICATES FEW OR NO CLOUDS BELOW 12,000 FEET WITH NO
SIGNIFICANT WEATHER AND/OR OBSTRUCTIONS TO VISIBILITY.

* - THESE STATIONS ARE NOT NWS STATIONS...THUS NOT UNDER NWS
QUALITY CONTROL.  THEY ALSO DO NOT REPORT WEATHER SUCH
AS PRECIPITATION OR FOG.

IAZ001>003-012>014-020>022-031>034-043>046-292200-
   NORTHWEST IOWA

CITY           SKY/WX    TMP DP  RH WIND       PRES   REMARKS
CARROLL *      CLOUDY    66  63  88 NE5       30.06S
CHEROKEE *       N/A     70  64  83 CALM      30.06S
DENISON *      CLOUDY    68  63  83 CALM      30.04F
LE MARS *      SUNNY     70  64  83 S6        30.05F
ORANGE CITY *  SUNNY     70  63  78 S3        30.05F
SHELDON *      SUNNY     72  64  78 SW5       30.04F
SIOUX CITY       N/A     71  62  73 E6        30.04F
SPENCER          N/A     71  62  73 S6        30.05F
STORM LAKE *   MOSUNNY   70  64  83 VRB5      30.07F
$$

IAZ055>058-069>071-079>083-090>094-292200-
   SOUTHWEST IOWA

CITY           SKY/WX    TMP DP  RH WIND       PRES   REMARKS
ATLANTIC *     CLOUDY    68  63  83 N6        30.06S
AUDUBON *      CLOUDY    66  63  88 CALM      30.08R
CLARINDA *     CLOUDY    70  64  83 N6        30.06S
COUNCIL BLFS *   N/A     72  63  73 CALM      30.06F
CRESTON *      CLOUDY    70  64  83 N5        30.06S
HARLAN  *      CLOUDY    70 -35   1 E6        30.09S
LAMONI         CLOUDY    76  66  71 N6        30.02S
RED OAK *      CLOUDY    72  64  78 N5        30.06S
SHENANDOAH *   CLOUDY    68  64  88 CALM      30.06S
$$

IAZ047>049-059>061-072>074-084-292200-
   CENTRAL IOWA

CITY           SKY/WX    TMP DP  RH WIND       PRES   REMARKS
AMES           CLOUDY    71  64  78 N5        30.04S
ANKENY *       CLOUDY    72  66  83 CALM      30.03S
CHARITON *     CLOUDY    72  66  83 CALM      30.03S
DES MOINES     CLOUDY    72  63  73 N7        30.03S
GRINNELL*      CLOUDY    70  64  83 N5        30.04R
KNOXVILLE *    CLOUDY    72  64  78 CALM      30.01S
MARSHALLTOWN   CLOUDY    70  64  81 NE6       30.03S
PELLA *        PTSUNNY   73  68  83 CALM      30.03S
PERRY *        CLOUDY    70  64  83 CALM      30.05S
$$

IAZ004>006-015-016-023>025-035-036-292200-
   NORTH CENTRAL IOWA

CITY           SKY/WX    TMP DP  RH WIND       PRES   REMARKS
ALGONA *       CLOUDY    66  63  88 CALM      30.07S
CLARION *      PTSUNNY   72  64  78 CALM      30.05S
ESTHERVILLE      N/A     69  63  81 VRB6      30.06S
FORT DODGE *   CLOUDY    68  61  77 CALM      30.06F
MASON CITY       N/A     74  64  71 CALM      30.06S
FOREST CITY *  SUNNY     70  64  83 CALM      30.04F
IOWA FALLS *   CLOUDY    72  63  73 N5        30.06S
$$

IAZ007>011-017>019-026>030-037>042-050>054-066-292200-
   NORTHEAST IOWA

CITY           SKY/WX    TMP DP  RH WIND       PRES   REMARKS
CEDAR RAPIDS   CLOUDY    73  68  84 N6        30.00S
CHARLES CITY * MOSUNNY   73  66  78 NE5       30.05S
CLINTON *      CLOUDY    72  66  83 NE5       30.03S
DECORAH *      CLOUDY    72  63  73 E6        30.04S
DUBUQUE        CLOUDY    73  65  75 NE6       30.03S
MONTICELLO *   CLOUDY    73  66  78 CALM      30.01S
OELWEIN *        N/A     70  64  83 E5        30.04S
WATERLOO       CLOUDY    72  64  76 E7        30.02S
$$

IAZ064-065-067-068-078-292200-
   EAST CENTRAL IOWA

CITY           SKY/WX    TMP DP  RH WIND       PRES   REMARKS
DAVENPORT      CLOUDY    73  67  81 N7        30.01R
IOWA CITY      CLOUDY    76  67  73 CALM      30.01S
MT. PLEASANT * CLOUDY    79  66  65 CALM      29.99S HX  81
MUSCATINE *    CLOUDY    75  68  78 N9        29.99F
QUAD CITIES    CLOUDY    75  67  76 CALM      29.99S
$$

IAZ062-063-075>077-085>089-095>099-292200-
   SOUTHEAST IOWA

CITY           SKY/WX    TMP DP  RH WIND       PRES   REMARKS
BURLINGTON     CLOUDY    77  69  76 CALM      29.99S
FAIRFIELD *    CLOUDY    73  68  83 NW8       30.00S
FORT MADISON * CLOUDY    75  70  83 CALM      30.00S
KEOKUK *       CLOUDY    79  68  69 CALM      29.98S HX  81
OSKALOOSA *    CLOUDY    73  66  78 N3        30.02S
CENTERVILLE *  CLOUDY    73  68  83 NW7       30.03S
OTTUMWA        CLOUDY    74  68  81 N9        30.00S
WASHINGTON *     N/A    N/A N/A N/A MISG        N/A
$$

ABBREVIATIONS USED IN REMARKS
   TC - TEMPERATURES IN CELSIUS
  WCI - WIND CHILL INDEX
   HX - HEAT INDEX
  VSB - VISIBILITY
$$




USA.gov is the U.S. government's official web portal to all federal, state and local government web resources and services.